Weather History for Big Bear City, CA

Change the Weather History Date:

Monday, November 19, 2012

  Actual Average (KBUO) Record (KBUO)
Temperature  
Mean Temperature 39 °F -  
Max Temperature 55 °F 65 °F 77 °F (1996)
Min Temperature 23 °F 44 °F 37 °F (1999)
Degree Days  
Heating Degree Days 26    
Moisture  
Dew Point 20 °F    
Average Humidity 57    
Maximum Humidity 93    
Minimum Humidity 15    
Precipitation  
Precipitation 0.00 in - - ()
Sea Level Pressure  
Sea Level Pressure 30.28 in    
Wind  
Wind Speed 2 mph (WSW)    
Max Wind Speed 10 mph    
Max Gust Speed -    
Visibility 8 miles    
Events Fog    
Averages and records for this station are not official NWS values.
T = Trace of Precipitation, MM = Missing Value Source: NWS Daily Summary

Daily Weather History Graph

Daily Weather History Graph

Search for Another Location

Airport:

Trip Planner

Search our weather history database for the weather conditions in past years. The results will help you decide how hot, cold, wet, or windy it might be!

Date:

Astronomy

Nov. 19, 2012 Rise Set
Actual Time 6:24 AM PST 4:40 PM PST
Civil Twilight 5:57 AM PST 5:07 PM PST
Nautical Twilight 5:27 AM PST 5:38 PM PST
Astronomical Twilight 4:57 AM PST 6:08 PM PST
Moon 11:36 AM PST (11/19) 11:05 PM PST (11/19)
Length of Visible Light 11h 09m
Length of Day
10h 16m
Waxing Crescent, 42% of the Moon is Illuminated
Nov 19
Waxing Crescent
Nov 20
First Quarter
Nov 28
Full
Dec 6
Last Quarter
Dec 13
New

Hourly Weather History & Observations

Time (PST) Temp. Windchill Dew Point Humidity Pressure Visibility Wind Dir Wind Speed Gust Speed Precip Events Conditions
12:15 AM 28.4 °F - 26.6 °F 93% 30.25 in 1.0 mi Calm Calm - N/A   Overcast
12:35 AM 28.4 °F - 24.8 °F 86% 30.23 in 3.0 mi Calm Calm - N/A   Overcast
12:55 AM 28.4 °F - 24.8 °F 86% 30.23 in 0.5 mi Calm Calm - N/A Fog Light Freezing Fog
1:15 AM 26.6 °F - 23.0 °F 86% 30.23 in 10.0 mi Calm Calm - N/A   Overcast
1:35 AM 28.4 °F - 24.8 °F 86% 30.23 in 1.0 mi Calm Calm - N/A   Overcast
1:55 AM 26.6 °F - 23.0 °F 86% 30.24 in 2.0 mi Calm Calm - N/A   Overcast
2:15 AM 26.6 °F - 24.8 °F 93% 30.24 in 1.0 mi Calm Calm - N/A   Overcast
2:35 AM 26.6 °F - 24.8 °F 93% 30.24 in 0.8 mi Calm Calm - N/A   Overcast
2:55 AM 26.6 °F - 23.0 °F 86% 30.23 in 0.8 mi Calm Calm - N/A   Overcast
3:15 AM 26.6 °F - 23.0 °F 86% 30.23 in 4.0 mi Calm Calm - N/A   Scattered Clouds
3:35 AM 26.6 °F - 23.0 °F 86% 30.23 in 10.0 mi Calm Calm - N/A   Mostly Cloudy
3:55 AM 26.6 °F - 23.0 °F 86% 30.23 in 5.0 mi Calm Calm - N/A   Overcast
4:15 AM 26.6 °F - 23.0 °F 86% 30.23 in 2.0 mi Calm Calm - N/A   Overcast
4:35 AM 26.6 °F - 23.0 °F 86% 30.24 in 0.5 mi Calm Calm - N/A Fog Light Freezing Fog
4:55 AM 26.6 °F - 23.0 °F 86% 30.24 in 0.8 mi Calm Calm - N/A   Overcast
5:35 AM 24.8 °F - 21.2 °F 86% 30.25 in 5.0 mi Calm Calm - N/A   Overcast
5:55 AM 23.0 °F - 21.2 °F 93% 30.26 in 7.0 mi Calm Calm - N/A   Overcast
6:15 AM 23.0 °F - 21.2 °F 93% 30.26 in 10.0 mi Calm Calm - N/A   Scattered Clouds
6:35 AM 23.0 °F - 21.2 °F 93% 30.27 in 10.0 mi Calm Calm - N/A   Mostly Cloudy
6:55 AM 24.8 °F - 21.2 °F 86% 30.28 in 10.0 mi Calm Calm - N/A   Scattered Clouds
7:15 AM 26.6 °F - 21.2 °F 80% 30.29 in 10.0 mi Calm Calm - N/A   Clear
7:35 AM 28.4 °F - 24.8 °F 86% 30.30 in 10.0 mi Calm Calm - N/A   Clear
7:55 AM 30.2 °F - 26.6 °F 86% 30.30 in 10.0 mi Calm Calm - N/A   Clear
8:15 AM 32.0 °F - 28.4 °F 87% 30.30 in 10.0 mi Calm Calm - N/A   Clear
8:35 AM 33.8 °F 30.8 °F 30.2 °F 87% 30.31 in 10.0 mi WSW 3.5 mph - N/A   Clear
8:55 AM 37.4 °F 33.8 °F 28.4 °F 70% 30.31 in 10.0 mi West 4.6 mph - N/A   Clear
9:15 AM 42.8 °F - 24.8 °F 49% 30.31 in 10.0 mi Calm Calm - N/A   Clear
9:35 AM 46.4 °F 44.3 °F 23.0 °F 40% 30.31 in 10.0 mi West 4.6 mph - N/A   Clear
9:55 AM 50.0 °F - 21.2 °F 32% 30.31 in 10.0 mi West 4.6 mph - N/A   Clear
10:15 AM 51.8 °F - 17.6 °F 26% 30.31 in 10.0 mi West 4.6 mph - N/A   Clear
10:35 AM 53.6 °F - 12.2 °F 19% 30.31 in 10.0 mi West 5.8 mph - N/A   Clear
10:55 AM 55.4 °F - 8.6 °F 15% 30.30 in 10.0 mi West 5.8 mph - N/A   Clear
11:15 AM 55.4 °F - 8.6 °F 15% 30.30 in 10.0 mi West 6.9 mph - N/A   Clear
11:35 AM 55.4 °F - 8.6 °F 15% 30.30 in 10.0 mi WSW 6.9 mph - N/A   Clear
11:55 AM 55.4 °F - 8.6 °F 15% 30.29 in 10.0 mi West 10.4 mph - N/A   Clear
12:15 PM 55.4 °F - 10.4 °F 17% 30.28 in 10.0 mi West 9.2 mph - N/A   Clear
12:35 PM 55.4 °F - 14.0 °F 20% 30.27 in 10.0 mi West 9.2 mph - N/A   Clear
12:55 PM 55.4 °F - 17.6 °F 23% 30.27 in 10.0 mi West 6.9 mph - N/A   Clear
1:15 PM 55.4 °F - 21.2 °F 26% 30.27 in 10.0 mi West 9.2 mph - N/A   Clear
1:35 PM 55.4 °F - 26.6 °F 33% 30.27 in 10.0 mi West 9.2 mph - N/A   Clear
1:55 PM 55.4 °F - 23.0 °F 29% 30.27 in 10.0 mi West 9.2 mph - N/A   Clear
2:15 PM 53.6 °F - 21.2 °F 28% 30.27 in 10.0 mi WSW 8.1 mph - N/A   Clear
2:35 PM 53.6 °F - 19.4 °F 26% 30.27 in 10.0 mi West 9.2 mph - N/A   Clear
2:55 PM 53.6 °F - 19.4 °F 26% 30.27 in 10.0 mi West 6.9 mph - N/A   Clear
3:15 PM 53.6 °F - 19.4 °F 26% 30.28 in 10.0 mi West 5.8 mph - N/A   Clear
3:35 PM 51.8 °F - 17.6 °F 26% 30.28 in 10.0 mi West 8.1 mph - N/A   Clear
3:55 PM 51.8 °F - 19.4 °F 28% 30.28 in 10.0 mi WSW 4.6 mph - N/A   Clear
4:15 PM 50.0 °F - 21.2 °F 32% 30.28 in 10.0 mi WSW 5.8 mph - N/A   Clear
4:35 PM 46.4 °F 44.3 °F 23.0 °F 40% 30.28 in 10.0 mi SW 4.6 mph - N/A   Clear
4:55 PM 46.4 °F 44.3 °F 21.2 °F 37% 30.29 in 10.0 mi WSW 4.6 mph - N/A   Clear
5:15 PM 44.6 °F - 21.2 °F 39% 30.29 in 10.0 mi Calm Calm - N/A   Clear
5:35 PM 41.0 °F - 23.0 °F 49% 30.30 in 10.0 mi Calm Calm - N/A   Clear
5:55 PM 39.2 °F - 23.0 °F 52% 30.30 in 10.0 mi Calm Calm - N/A   Clear
6:15 PM 35.6 °F - 23.0 °F 60% 30.30 in 10.0 mi Calm Calm - N/A   Clear
6:35 PM 33.8 °F - 21.2 °F 60% 30.31 in 10.0 mi Calm Calm - N/A   Clear
7:35 PM 32.0 °F - 17.6 °F 55% 30.31 in 10.0 mi Calm Calm - N/A   Clear
7:55 PM 32.0 °F 28.7 °F 17.6 °F 55% 30.31 in 10.0 mi SW 3.5 mph - N/A   Clear
8:15 PM 30.2 °F - 14.0 °F 51% 30.31 in 10.0 mi Calm Calm - N/A   Clear
8:35 PM 30.2 °F - 17.6 °F 60% 30.32 in 10.0 mi Calm Calm - N/A   Clear
8:55 PM 30.2 °F - 15.8 °F 55% 30.32 in 10.0 mi Calm Calm - N/A   Clear
9:15 PM 28.4 °F - 14.0 °F 55% 30.33 in 10.0 mi Calm Calm - N/A   Clear
9:35 PM 28.4 °F - 14.0 °F 55% 30.32 in 10.0 mi Calm Calm - N/A   Clear
9:55 PM 28.4 °F - 14.0 °F 55% 30.33 in 10.0 mi Calm Calm - N/A   Clear
10:15 PM 28.4 °F - 14.0 °F 55% 30.32 in 10.0 mi Calm Calm - N/A   Clear
10:35 PM 28.4 °F - 14.0 °F 55% 30.32 in 10.0 mi Calm Calm - N/A   Clear
10:55 PM 28.4 °F - 14.0 °F 55% 30.32 in 10.0 mi Calm Calm - N/A   Clear
11:15 PM 28.4 °F - 14.0 °F 55% 30.31 in 10.0 mi Calm Calm - N/A   Clear
11:35 PM 26.6 °F - 12.2 °F 55% 30.31 in 10.0 mi Calm Calm - N/A   Clear
11:55 PM 26.6 °F - 14.0 °F 59% 30.31 in 10.0 mi Calm Calm - N/A   Clear